{"data":{"norad_id":53136,"intl_designator":"2022-083E","name":"STARLINK-4152","alt_names":[],"object_type":"PAYLOAD","status":"ACTIVE","operator":null,"country":"US","launch_date":"2022-07-17","launch_site_code":"AFETR","launch_vehicle":null,"mission":null,"orbit_class":"UNKNOWN","rcs_meters":null,"size_class":null,"mass_kg":null,"dimensions":null,"purposes":["comms"],"wikipedia_slug":null,"has_3d_model":false,"image_url":null,"decayed_at":null,"tle_current":{"epoch":"2026-09-19T15:33:08.534880Z","epoch_age_seconds":145784,"freshness":"FRESH","line1":"1 53136U 22083E   26262.64801545 -.00065260  00000+0 -19142-2 0  9993","line2":"2 53136  53.1619   9.6225 0001245  71.2021 288.9117 15.34771593231674","mean_motion":15.34771593,"eccentricity":0.0001245,"inclination_deg":53.1619,"raan_deg":9.6225,"arg_perigee_deg":71.2021,"mean_anomaly_deg":288.9117,"bstar":-0.0019142,"rev_number":23167,"period_min":93.825036022803,"perigee_km":460.74746321234,"apogee_km":462.45055747892,"semimajor_km":6839.7360103456,"source":"CELESTRAK","updated_at":"2026-09-20T09:00:40.178975Z"}}}